Time,TemperatureF,DewpointF,PressureIn,WindDirection,WindDirectionDegrees,WindSpeedMPH,WindSpeedGustMPH,Humidity,HourlyPrecipIn,Conditions,Clouds,dailyrainin,SolarRadiationWatts/m^2,SoftwareType,DateUTC
2013-07-07 00:11:00,73.0,72.0,-100.00,SSE,149,6.0,19.0,96,0.14,,,1.54,0.000000,,2013-07-07 05:11:00,
2013-07-07 00:21:00,73.0,72.0,-100.00,SSE,149,6.0,19.0,96,0.14,,,1.54,0.000000,,2013-07-07 05:21:00,
2013-07-07 00:31:00,73.0,72.0,-100.00,SSE,149,6.0,19.0,96,0.14,,,1.54,0.000000,,2013-07-07 05:31:00,
2013-07-07 00:41:00,73.0,72.0,-100.00,SSE,149,6.0,19.0,96,0.14,,,1.54,0.000000,,2013-07-07 05:41:00,
2013-07-07 00:50:00,73.0,72.0,-100.00,SSE,160,2.0,9.0,97,0.03,,,1.57,0.000000,,2013-07-07 05:50:00,
2013-07-07 01:11:00,73.0,72.0,-100.00,SSE,160,2.0,9.0,97,0.03,,,1.57,0.000000,,2013-07-07 06:11:00,
2013-07-07 01:21:00,73.0,72.0,-100.00,SSE,160,2.0,9.0,97,0.03,,,1.57,0.000000,,2013-07-07 06:21:00,
2013-07-07 01:32:00,73.0,72.0,-100.00,SSE,160,2.0,9.0,97,0.03,,,1.57,0.000000,,2013-07-07 06:32:00,
2013-07-07 01:43:00,73.0,72.0,-100.00,SSE,160,2.0,9.0,97,0.03,,,1.57,0.000000,,2013-07-07 06:43:00,
2013-07-07 01:50:00,74.0,73.0,-100.00,ENE,78,1.0,8.0,97,0.00,,,1.57,0.000000,,2013-07-07 06:50:00,
2013-07-07 02:11:00,74.0,73.0,-100.00,ENE,78,1.0,8.0,97,0.00,,,1.57,0.000000,,2013-07-07 07:11:00,
2013-07-07 02:22:00,74.0,73.0,-100.00,ENE,78,1.0,8.0,97,0.00,,,1.57,0.000000,,2013-07-07 07:22:00,
2013-07-07 02:33:00,74.0,73.0,-100.00,ENE,78,1.0,8.0,97,0.00,,,1.57,0.000000,,2013-07-07 07:33:00,
2013-07-07 02:44:00,74.0,73.0,-100.00,ENE,78,1.0,8.0,97,0.00,,,1.57,0.000000,,2013-07-07 07:44:00,
2013-07-07 02:50:00,73.0,72.0,-100.00,NE,51,4.0,6.0,98,0.01,,,1.57,0.000000,,2013-07-07 07:50:00,
2013-07-07 03:12:00,73.0,72.0,-100.00,NE,51,4.0,6.0,98,0.01,,,1.57,0.000000,,2013-07-07 08:12:00,
2013-07-07 03:22:00,73.0,72.0,-100.00,NE,51,4.0,6.0,98,0.01,,,1.57,0.000000,,2013-07-07 08:22:00,
2013-07-07 03:34:00,73.0,72.0,-100.00,NE,51,4.0,6.0,98,0.01,,,1.57,0.000000,,2013-07-07 08:34:00,
2013-07-07 03:44:00,73.0,72.0,-100.00,NE,51,4.0,6.0,98,0.01,,,1.57,0.000000,,2013-07-07 08:44:00,
2013-07-07 03:50:00,73.0,72.0,-100.00,NE,56,3.0,5.0,98,0.00,,,1.53,0.000000,,2013-07-07 08:50:00,
2013-07-07 04:12:00,73.0,72.0,-100.00,NE,56,3.0,5.0,98,0.00,,,1.53,0.000000,,2013-07-07 09:12:00,
2013-07-07 04:22:00,73.0,72.0,-100.00,NE,56,3.0,5.0,98,0.00,,,1.53,0.000000,,2013-07-07 09:22:00,
2013-07-07 04:34:00,73.0,72.0,-100.00,NE,56,3.0,5.0,98,0.00,,,1.53,0.000000,,2013-07-07 09:34:00,
2013-07-07 04:43:00,73.0,72.0,-100.00,NE,56,3.0,5.0,98,0.00,,,1.53,0.000000,,2013-07-07 09:43:00,
2013-07-07 04:50:00,73.0,72.0,-100.00,ENE,65,2.0,5.0,98,0.00,,,1.49,0.000000,,2013-07-07 09:50:00,
2013-07-07 05:12:00,73.0,72.0,-100.00,ENE,65,2.0,5.0,98,0.00,,,1.49,0.000000,,2013-07-07 10:12:00,
2013-07-07 05:22:00,73.0,72.0,-100.00,ENE,65,2.0,5.0,98,0.00,,,1.49,0.000000,,2013-07-07 10:22:00,
2013-07-07 05:32:00,73.0,72.0,-100.00,ENE,65,2.0,5.0,98,0.00,,,1.49,0.000000,,2013-07-07 10:32:00,
2013-07-07 05:43:00,73.0,72.0,-100.00,ENE,65,2.0,5.0,98,0.00,,,1.49,0.000000,,2013-07-07 10:43:00,
2013-07-07 05:50:00,73.0,72.0,-100.00,ENE,72,2.0,5.0,98,0.06,,,1.05,0.000000,,2013-07-07 10:50:00,
2013-07-07 06:11:00,73.0,72.0,-100.00,ENE,72,2.0,5.0,98,0.06,,,1.05,0.000000,,2013-07-07 11:11:00,
2013-07-07 06:23:00,73.0,72.0,-100.00,ENE,72,2.0,5.0,98,0.06,,,1.05,0.000000,,2013-07-07 11:23:00,
2013-07-07 06:34:00,73.0,72.0,-100.00,ENE,72,2.0,5.0,98,0.06,,,1.05,0.000000,,2013-07-07 11:34:00,
2013-07-07 06:43:00,73.0,72.0,-100.00,ENE,72,2.0,5.0,98,0.06,,,1.05,0.000000,,2013-07-07 11:43:00,
2013-07-07 06:50:00,73.0,72.0,-100.00,East,84,2.0,5.0,98,0.00,,,1.03,8.000000,,2013-07-07 11:50:00,
2013-07-07 07:12:00,73.0,72.0,-100.00,East,84,2.0,5.0,98,0.00,,,1.03,8.000000,,2013-07-07 12:12:00,
2013-07-07 07:22:00,73.0,72.0,-100.00,East,84,2.0,5.0,98,0.00,,,1.03,8.000000,,2013-07-07 12:22:00,
2013-07-07 07:34:00,73.0,72.0,-100.00,East,84,2.0,5.0,98,0.00,,,1.03,8.000000,,2013-07-07 12:34:00,
2013-07-07 07:43:00,73.0,72.0,-100.00,East,84,2.0,5.0,98,0.00,,,1.03,8.000000,,2013-07-07 12:43:00,
2013-07-07 07:50:00,74.0,73.0,-100.00,NNE,32,2.0,5.0,98,0.06,,,1.09,62.000000,,2013-07-07 12:50:00,
2013-07-07 08:22:00,74.0,73.0,-100.00,NNE,32,2.0,5.0,98,0.06,,,1.09,62.000000,,2013-07-07 13:22:00,
2013-07-07 08:34:00,74.0,73.0,-100.00,NNE,32,2.0,5.0,98,0.06,,,1.09,62.000000,,2013-07-07 13:34:00,
2013-07-07 08:43:00,74.0,73.0,-100.00,NNE,32,2.0,5.0,98,0.06,,,1.09,62.000000,,2013-07-07 13:43:00,
2013-07-07 09:50:00,75.0,74.0,-100.00,North,359,5.0,7.0,98,0.03,,,-99.99,46.000000,,2013-07-07 14:50:00,
2013-07-07 10:11:00,75.0,74.0,-100.00,North,359,5.0,7.0,98,0.03,,,-99.99,46.000000,,2013-07-07 15:11:00,
2013-07-07 10:22:00,75.0,74.0,-100.00,North,359,5.0,7.0,98,0.03,,,-99.99,46.000000,,2013-07-07 15:22:00,
2013-07-07 10:34:00,75.0,74.0,-100.00,North,359,5.0,7.0,98,0.03,,,-99.99,46.000000,,2013-07-07 15:34:00,
2013-07-07 10:43:00,75.0,74.0,-100.00,North,359,5.0,7.0,98,0.03,,,-99.99,46.000000,,2013-07-07 15:43:00,
2013-07-07 10:50:00,75.0,74.0,-100.00,NW,310,4.0,8.0,96,0.17,,,0.89,60.000000,,2013-07-07 15:50:00,
2013-07-07 11:11:00,75.0,74.0,-100.00,NW,310,4.0,8.0,96,0.17,,,0.89,60.000000,,2013-07-07 16:11:00,
2013-07-07 11:23:00,75.0,74.0,-100.00,NW,310,4.0,8.0,96,0.17,,,0.89,60.000000,,2013-07-07 16:23:00,
2013-07-07 11:34:00,75.0,74.0,-100.00,NW,310,4.0,8.0,96,0.17,,,0.89,60.000000,,2013-07-07 16:34:00,
2013-07-07 11:43:00,75.0,74.0,-100.00,NW,310,4.0,8.0,96,0.17,,,0.89,60.000000,,2013-07-07 16:43:00,
2013-07-07 11:50:00,75.0,74.0,-100.00,East,89,5.0,11.0,97,0.28,,,1.04,34.000000,,2013-07-07 16:50:00,
2013-07-07 12:12:00,75.0,74.0,-100.00,East,89,5.0,11.0,97,0.28,,,1.04,34.000000,,2013-07-07 17:12:00,
2013-07-07 12:22:00,75.0,74.0,-100.00,East,89,5.0,11.0,97,0.28,,,1.04,34.000000,,2013-07-07 17:22:00,
2013-07-07 12:34:00,75.0,74.0,-100.00,East,89,5.0,11.0,97,0.28,,,1.04,34.000000,,2013-07-07 17:34:00,
2013-07-07 12:43:00,75.0,74.0,-100.00,East,89,5.0,11.0,97,0.28,,,1.04,34.000000,,2013-07-07 17:43:00,
2013-07-07 12:50:00,75.0,73.0,-100.00,East,85,5.0,8.0,95,0.06,,,1.06,118.000000,,2013-07-07 17:50:00,
2013-07-07 13:11:00,75.0,73.0,-100.00,East,85,5.0,8.0,95,0.06,,,1.06,118.000000,,2013-07-07 18:11:00,
2013-07-07 13:22:00,75.0,73.0,-100.00,East,85,5.0,8.0,95,0.06,,,1.06,118.000000,,2013-07-07 18:22:00,
2013-07-07 13:33:00,75.0,73.0,-100.00,East,85,5.0,8.0,95,0.06,,,1.06,118.000000,,2013-07-07 18:33:00,
2013-07-07 13:43:00,75.0,73.0,-100.00,East,85,5.0,8.0,95,0.06,,,1.06,118.000000,,2013-07-07 18:43:00,
2013-07-07 13:50:00,79.0,75.0,-100.00,East,86,5.0,9.0,88,0.01,,,1.07,441.000000,,2013-07-07 18:50:00,
2013-07-07 14:22:00,79.0,75.0,-100.00,East,86,5.0,9.0,88,0.01,,,1.07,441.000000,,2013-07-07 19:22:00,
2013-07-07 14:34:00,79.0,75.0,-100.00,East,86,5.0,9.0,88,0.01,,,1.07,441.000000,,2013-07-07 19:34:00,
2013-07-07 14:43:00,79.0,75.0,-100.00,East,86,5.0,9.0,88,0.01,,,1.07,441.000000,,2013-07-07 19:43:00,
2013-07-07 14:50:00,80.0,74.0,-100.00,SE,139,6.0,9.0,83,0.00,,,1.07,269.000000,,2013-07-07 19:50:00,
2013-07-07 15:11:00,80.0,74.0,-100.00,SE,139,6.0,9.0,83,0.00,,,1.07,269.000000,,2013-07-07 20:11:00,
2013-07-07 15:22:00,80.0,74.0,-100.00,SE,139,6.0,9.0,83,0.00,,,1.07,269.000000,,2013-07-07 20:22:00,
2013-07-07 15:34:00,80.0,74.0,-100.00,SE,139,6.0,9.0,83,0.00,,,1.07,269.000000,,2013-07-07 20:34:00,
2013-07-07 15:42:00,80.0,74.0,-100.00,SE,139,6.0,9.0,83,0.00,,,1.07,269.000000,,2013-07-07 20:42:00,
2013-07-07 15:50:00,80.0,74.0,-100.00,SSE,149,4.0,9.0,82,0.00,,,1.07,171.000000,,2013-07-07 20:50:00,
2013-07-07 16:11:00,80.0,74.0,-100.00,SSE,149,4.0,9.0,82,0.00,,,1.07,171.000000,,2013-07-07 21:11:00,
2013-07-07 16:22:00,80.0,74.0,-100.00,SSE,149,4.0,9.0,82,0.00,,,1.07,171.000000,,2013-07-07 21:22:00,
2013-07-07 16:33:00,80.0,74.0,-100.00,SSE,149,4.0,9.0,82,0.00,,,1.07,171.000000,,2013-07-07 21:33:00,
2013-07-07 16:43:00,80.0,74.0,-100.00,SSE,149,4.0,9.0,82,0.00,,,1.07,171.000000,,2013-07-07 21:43:00,
2013-07-07 16:50:00,79.0,76.0,-100.00,SE,132,2.0,7.0,91,0.01,,,1.07,106.000000,,2013-07-07 21:50:00,
2013-07-07 17:11:00,79.0,76.0,-100.00,SE,132,2.0,7.0,91,0.01,,,1.07,106.000000,,2013-07-07 22:11:00,
2013-07-07 17:22:00,79.0,76.0,-100.00,SE,132,2.0,7.0,91,0.01,,,1.07,106.000000,,2013-07-07 22:22:00,
2013-07-07 17:34:00,79.0,76.0,-100.00,SE,132,2.0,7.0,91,0.01,,,1.07,106.000000,,2013-07-07 22:34:00,
2013-07-07 17:43:00,79.0,76.0,-100.00,SE,132,2.0,7.0,91,0.01,,,1.07,106.000000,,2013-07-07 22:43:00,
2013-07-07 17:50:00,79.0,77.0,-100.00,SE,130,3.0,5.0,94,0.01,,,1.07,71.000000,,2013-07-07 22:50:00,
2013-07-07 18:12:00,79.0,77.0,-100.00,SE,130,3.0,5.0,94,0.01,,,1.07,71.000000,,2013-07-07 23:12:00,
2013-07-07 18:22:00,79.0,77.0,-100.00,SE,130,3.0,5.0,94,0.01,,,1.07,71.000000,,2013-07-07 23:22:00,
2013-07-07 18:33:00,79.0,77.0,-100.00,SE,130,3.0,5.0,94,0.01,,,1.07,71.000000,,2013-07-07 23:33:00,
2013-07-07 18:43:00,79.0,77.0,-100.00,SE,130,3.0,5.0,94,0.01,,,1.07,71.000000,,2013-07-07 23:43:00,
2013-07-07 18:50:00,79.0,77.0,-100.00,WSW,257,0.0,5.0,95,0.00,,,1.04,44.000000,,2013-07-07 23:50:00,
2013-07-07 19:22:00,79.0,77.0,-100.00,WSW,257,0.0,5.0,95,0.00,,,1.04,44.000000,,2013-07-08 00:22:00,
2013-07-07 19:33:00,79.0,77.0,-100.00,WSW,257,0.0,5.0,95,0.00,,,1.04,44.000000,,2013-07-08 00:33:00,
2013-07-07 19:43:00,79.0,77.0,-100.00,WSW,257,0.0,5.0,95,0.00,,,1.04,44.000000,,2013-07-08 00:43:00,
2013-07-07 19:50:00,78.0,77.0,-100.00,NW,315,0.0,3.0,97,0.00,,,1.03,11.000000,,2013-07-08 00:50:00,
2013-07-07 20:11:00,78.0,77.0,-100.00,NW,315,0.0,3.0,97,0.00,,,1.03,11.000000,,2013-07-08 01:11:00,
2013-07-07 20:22:00,78.0,77.0,-100.00,NW,315,0.0,3.0,97,0.00,,,1.03,11.000000,,2013-07-08 01:22:00,
2013-07-07 20:32:00,78.0,77.0,-100.00,NW,315,0.0,3.0,97,0.00,,,1.03,11.000000,,2013-07-08 01:32:00,
2013-07-07 20:43:00,78.0,77.0,-100.00,NW,315,0.0,3.0,97,0.00,,,1.03,11.000000,,2013-07-08 01:43:00,
2013-07-07 20:50:00,75.0,74.0,-100.00,NNE,19,1.0,8.0,96,0.00,,,0.98,0.000000,,2013-07-08 01:50:00,
2013-07-07 21:11:00,75.0,74.0,-100.00,NNE,19,1.0,8.0,96,0.00,,,0.98,0.000000,,2013-07-08 02:11:00,
2013-07-07 21:22:00,75.0,74.0,-100.00,NNE,19,1.0,8.0,96,0.00,,,0.98,0.000000,,2013-07-08 02:22:00,
2013-07-07 21:33:00,75.0,74.0,-100.00,NNE,19,1.0,8.0,96,0.00,,,0.98,0.000000,,2013-07-08 02:33:00,
2013-07-07 21:42:00,75.0,74.0,-100.00,NNE,19,1.0,8.0,96,0.00,,,0.98,0.000000,,2013-07-08 02:42:00,
2013-07-07 21:50:00,75.0,74.0,-100.00,SE,124,0.0,3.0,97,0.00,,,0.98,0.000000,,2013-07-08 02:50:00,
2013-07-07 22:12:00,75.0,74.0,-100.00,SE,124,0.0,3.0,97,0.00,,,0.98,0.000000,,2013-07-08 03:12:00,
2013-07-07 22:23:00,75.0,74.0,-100.00,SE,124,0.0,3.0,97,0.00,,,0.98,0.000000,,2013-07-08 03:23:00,
2013-07-07 22:34:00,75.0,74.0,-100.00,SE,124,0.0,3.0,97,0.00,,,0.98,0.000000,,2013-07-08 03:34:00,
2013-07-07 22:42:00,75.0,74.0,-100.00,SE,124,0.0,3.0,97,0.00,,,0.98,0.000000,,2013-07-08 03:42:00,
2013-07-07 22:50:00,75.0,73.0,-100.00,SE,143,6.0,15.0,94,0.00,,,0.87,0.000000,,2013-07-08 03:50:00,
2013-07-07 23:12:00,75.0,73.0,-100.00,SE,143,6.0,15.0,94,0.00,,,0.87,0.000000,,2013-07-08 04:12:00,
2013-07-07 23:22:00,75.0,73.0,-100.00,SE,143,6.0,15.0,94,0.00,,,0.87,0.000000,,2013-07-08 04:22:00,
2013-07-07 23:33:00,75.0,73.0,-100.00,SE,143,6.0,15.0,94,0.00,,,0.87,0.000000,,2013-07-08 04:33:00,
2013-07-07 23:42:00,75.0,73.0,-100.00,SE,143,6.0,15.0,94,0.00,,,0.87,0.000000,,2013-07-08 04:42:00,
2013-07-07 23:50:00,73.0,71.0,-100.00,SE,131,4.0,6.0,95,0.00,,,0.73,0.000000,,2013-07-08 04:50:00,